千帆星座-24 (QIANFAN-24)

Basic Information
目录编号:
61557
目录名称:
QIANFAN-24
国际标识:
2024-185F
轨道中心:
EARTH
卫星名称:
千帆星座-24
卫星全名:
千帆星座-24 (QIANFAN-24)
卫星状态:
在轨 (已飞行515 天)
发射日期:
2024-10-15 UTC
国别 :
中国 (CN)
星等 :
--
Orbit Information
数据来源 国际轨道数据 AOE轨道数据
星历时间 2026-03-14T07:18:10+0800
8小时前
查看轨道信息
2026-03-13T17:00:00+0800
22小时前
查看轨道信息
半长轴 7190.169km 7190.177km
偏心率 0.0009619 0.0009414
轨道倾角 88.974° 88.977°
近地点辐角 15.044° 14.988°
升交点赤经 66.486° 66.558°
平近点角 345.103° 172.159°
近地点 805.115km 805.271km
远地点 818.949km 818.809km
周期 101.127分钟 101.127分钟
每日圈数 14.23948 14.239457
Detailed Information
卫星平台:
24
覆盖范围:
全球
运营商:
上海垣信卫星科技有限公司
运营商所在国:
中国
使用方式:
暂无
Satellite Introduction
千帆星座,也被称为“G60星链”计划,是中国版“星链”的重要组成部分,旨在打造一个由1.4万多颗低轨宽频多媒体卫星构成的庞大星座。千帆星座计划由上海垣信卫星科技有限公司负责实施,于2023年启动建设。该项目是我国第二个低轨卫星大星座,旨在通过构建庞大的卫星网络,为全球用户提供高质量的通信和宽带互联网服务。
2D Orbit Map
3D Orbit Map
Orbit Altitude Analysis Chart
Orbit Inclination Analysis Chart
Orbit Comprehensive Analysis Chart
View Comprehensive Chart